TimeEST,TemperatureF,Dew PointF,Humidity,Sea Level PressureIn,VisibilityMPH,Wind Direction,Wind SpeedMPH,Gust SpeedMPH,PrecipitationIn,Events,Conditions,WindDirDegrees,DateUTC
12:54 AM,12.9,-0.0,56,29.91,10.0,West,16.1,21.9,N/A,,Scattered Clouds,260,2013-01-22 05:54:00
1:54 AM,12.0,-2.0,53,29.92,10.0,West,17.3,23.0,N/A,,Scattered Clouds,260,2013-01-22 06:54:00
2:54 AM,10.9,-2.9,54,29.94,10.0,West,19.6,26.5,N/A,,Scattered Clouds,260,2013-01-22 07:54:00
3:54 AM,10.0,-2.0,58,29.95,10.0,West,18.4,25.3,N/A,,Mostly Cloudy,260,2013-01-22 08:54:00
4:54 AM,10.0,-2.9,56,29.96,10.0,West,20.7,32.2,N/A,,Overcast,260,2013-01-22 09:54:00
5:54 AM,8.1,-4.0,58,29.98,10.0,WSW,19.6,26.5,N/A,,Scattered Clouds,250,2013-01-22 10:54:00
6:54 AM,8.1,-5.1,55,30.00,10.0,West,19.6,26.5,N/A,,Scattered Clouds,260,2013-01-22 11:54:00
7:54 AM,8.1,-5.1,55,30.02,10.0,West,18.4,-,N/A,,Mostly Cloudy,260,2013-01-22 12:54:00
8:54 AM,9.0,-4.0,56,30.03,10.0,West,20.7,29.9,N/A,,Mostly Cloudy,260,2013-01-22 13:54:00
9:54 AM,10.0,-2.9,56,30.06,10.0,West,21.9,31.1,N/A,,Mostly Cloudy,270,2013-01-22 14:54:00
10:54 AM,12.0,-2.0,53,30.09,10.0,West,17.3,29.9,N/A,,Overcast,270,2013-01-22 15:54:00
11:54 AM,12.0,-2.9,51,30.08,10.0,West,19.6,28.8,N/A,,Mostly Cloudy,260,2013-01-22 16:54:00
12:54 PM,12.9,-2.0,51,30.08,10.0,West,19.6,31.1,N/A,,Mostly Cloudy,270,2013-01-22 17:54:00
1:54 PM,12.9,-2.0,51,30.08,10.0,WSW,23.0,26.5,N/A,,Mostly Cloudy,250,2013-01-22 18:54:00
2:54 PM,12.0,-5.1,46,30.09,10.0,West,20.7,28.8,N/A,,Mostly Cloudy,260,2013-01-22 19:54:00
3:54 PM,12.0,-4.0,49,30.11,10.0,WSW,15.0,24.2,N/A,,Mostly Cloudy,250,2013-01-22 20:54:00
4:54 PM,12.0,-6.0,44,30.12,10.0,West,17.3,23.0,N/A,,Mostly Cloudy,260,2013-01-22 21:54:00
5:54 PM,10.9,-6.0,47,29.98,10.0,West,16.1,26.5,N/A,,Mostly Cloudy,270,2013-01-22 22:54:00
6:54 PM,10.9,-4.0,51,30.00,9.0,West,16.1,28.8,0.00,Snow,Light Snow,280,2013-01-22 23:54:00
7:54 PM,10.0,-0.9,61,30.18,8.0,West,15.0,-,0.00,Snow,Light Snow,280,2013-01-23 00:54:00
8:14 PM,8.6,-0.4,67,30.14,9.0,West,12.7,25.3,0.00,Snow,Light Snow,280,2013-01-23 01:14:00
8:24 PM,8.6,-0.4,67,30.14,10.0,West,13.8,20.7,0.00,,Overcast,280,2013-01-23 01:24:00
8:54 PM,9.0,-2.0,61,30.19,10.0,West,13.8,19.6,0.00,,Mostly Cloudy,270,2013-01-23 01:54:00
9:21 PM,8.6,-0.4,67,30.15,10.0,West,11.5,21.9,0.00,Snow,Light Snow,280,2013-01-23 02:21:00
9:54 PM,8.1,1.0,73,30.20,9.0,West,9.2,19.6,0.00,Snow,Light Snow,270,2013-01-23 02:54:00
10:54 PM,8.1,-0.9,67,30.04,8.0,West,12.7,21.9,0.00,Snow,Light Snow,280,2013-01-23 03:54:00
11:54 PM,8.1,-4.0,58,30.03,10.0,West,10.4,-,0.00,Snow,Light Snow,260,2013-01-23 04:54:00